DW6352 Weather Reports


time (UTC)temp
F
wind
direction
speed
knots
gust
knots
rain 1hr
in
rain 24hr
in
rain mn
in
humidity
%
barometer
mb
20260905011513 68 333 5.2 8.7 0.00 0.00 0.00 83 1013.1
20260905010009 68 49 4.3 9.6 0.00 0.00 0.00 82 1012.8
20260905004513 69 320 4.3 11.3 0.00 0.00 0.00 80 1012.6
20260905003020 70 5 5.2 11.3 0.00 0.00 0.00 78 1012.6
20260905001513 72 24 5.2 10.4 0.00 0.00 0.00 76 1012.4
20260905000007 73 16 6.1 10.4 0.00 0.00 0.00 74 1012.2
20260904234627 75 31 4.3 11.3 0.00 0.00 0.00 72 1012.2
20260904233011 76 46 5.2 10.4 0.00 0.00 0.00 70 1012.1
20260904231503 77 9 7.8 11.3 0.00 0.00 0.00 69 1011.9
20260904230030 78 39 6.1 10.4 0.00 0.00 0.00 68 1011.8
20260904224509 80 11 3.5 10.4 0.00 0.02 0.00 66 1011.7
20260904223127 80 30 3.5 11.3 0.00 0.02 0.00 66 1011.5
20260904221507 80 355 3.5 9.6 0.00 0.02 0.00 65 1011.3
20260904220014 81 44 4.3 8.7 0.00 0.02 0.00 64 1011.1
20260904214631 81 60 4.3 10.4 0.00 0.02 0.00 65 1011.0
20260904213009 81 49 3.5 10.4 0.00 0.02 0.00 63 1011.1
20260904211510 81 12 2.6 8.7 0.00 0.02 0.00 64 1011.1
20260904210005 81 13 4.3 10.4 0.00 0.02 0.00 64 1011.1
20260904204511 81 40 4.3 8.7 0.00 0.02 0.00 64 1011.0
20260904203014 80 26 4.3 10.4 0.00 0.02 0.00 65 1011.1
20260904201506 80 325 3.5 10.4 0.00 0.02 0.00 65 1011.0
20260904200126 80 281 4.3 9.6 0.00 0.02 0.00 66 1011.0
20260904194500 79 26 1.7 10.4 0.00 0.02 0.00 66 1011.0
20260904193006 79 125 1.7 7.8 0.00 0.02 0.00 66 1010.8
20260904191627 79 25 1.7 7.8 0.00 0.02 0.00 69 1010.9
20260904190012 78 34 3.5 8.7 0.00 0.02 0.00 70 1011.0
20260904184509 78 30 2.6 8.7 0.00 0.02 0.00 71 1011.0
20260904183014 77 25 3.5 9.6 0.00 0.02 0.00 71 1011.0
20260904181520 76 19 1.7 5.2 0.00 0.02 0.00 75 1011.0
20260904180021 74 29 3.5 7.8 0.00 0.02 0.00 75 1011.1
20260904174511 73 76 2.6 6.1 0.00 0.02 0.00 78 1011.2
20260904173016 71 330 3.5 8.7 0.00 0.02 0.00 80 1011.4
20260904171513 69 332 4.3 8.7 0.00 0.02 0.00 83 1011.5
20260904170018 69 11 4.3 8.7 0.00 0.02 0.00 84 1011.5
20260904164624 69 46 1.7 8.7 0.00 0.02 0.00 85 1011.4
20260904163128 69 355 3.5 8.7 0.00 0.02 0.00 85 1011.1
20260904161518 68 327 4.3 10.4 0.00 0.02 0.00 85 1011.0
20260904160127 68 20 5.2 9.6 0.00 0.02 0.00 85 1010.9
20260904154510 69 39 4.3 7.8 0.00 0.02 0.00 85 1010.6
20260904153132 69 55 4.3 8.7 0.00 0.02 0.00 85 1010.5
20260904151513 68 16 3.5 8.7 0.00 0.02 0.00 86 1010.2
20260904150016 69 51 5.2 10.4 0.00 0.02 0.00 86 1010.0
20260904144512 69 333 2.6 7.8 0.00 0.02 0.00 87 1009.9
20260904143010 69 5 3.5 10.4 0.00 0.02 0.00 89 1010.0
20260904141508 70 32 3.5 8.7 0.00 0.02 0.00 90 1009.7
20260904140010 70 60 1.7 3.5 0.00 0.02 0.00 90 1009.2
20260904134624 70 26 1.7 3.5 0.00 0.02 0.00 89 1009.0
20260904133126 69 82 1.7 3.5 0.00 0.02 0.00 89 1008.8
20260904131508 69 90 1.7 3.5 0.00 0.02 0.00 89 1008.8
20260904130004 69 105 1.7 5.2 0.00 0.02 0.00 90 1008.7
20260904124623 68 64 1.7 3.5 0.00 0.02 0.00 90 1008.8
20260904123002 68 67 0.0 3.5 0.00 0.02 0.00 90 1008.8
20260904121514 67 67 1.7 3.5 0.00 0.02 0.00 89 1008.7
20260904120011 67 88 1.7 4.3 0.00 0.02 0.00 88 1008.5
20260904114510 67 65 0.9 2.6 0.00 0.02 0.00 88 1008.7
20260904113126 67 65 0.0 4.3 0.00 0.02 0.00 88 1008.4
20260904111513 67 80 1.7 3.5 0.00 0.02 0.00 88 1008.1
20260904110129 67 69 2.6 7.8 0.00 0.02 0.00 88 1007.9
20260904104502 66 60 2.6 7.8 0.00 0.02 0.00 88 1008.1
20260904103008 66 70 4.3 10.4 0.00 0.02 0.00 89 1008.1
20260904101514 66 98 3.5 8.7 0.00 0.02 0.00 88 1008.2
20260904100001 66 99 3.5 8.7 0.00 0.02 0.00 88 1008.2
20260904094506 65 92 4.3 8.7 0.00 0.02 0.00 88 1008.3
20260904093020 65 54 4.3 12.2 0.00 0.02 0.00 88 1008.3
20260904091509 65 52 5.2 9.6 0.00 0.02 0.00 88 1008.4
20260904090007 65 27 4.3 9.6 0.00 0.02 0.00 89 1008.3
20260904084512 65 9 2.6 8.7 0.00 0.02 0.00 89 1008.4
20260904083129 65 5 3.5 12.2 0.00 0.02 0.00 89 1008.2
20260904081510 67 54 4.3 12.2 0.00 0.02 0.00 89 1008.3
20260904080008 69 20 6.1 20.9 0.00 0.02 0.00 89 1007.8
20260904074507 70 15 2.6 3.5 0.00 0.02 0.00 90 1007.2
20260904073034 71 35 0.9 3.5 0.00 0.02 0.00 90 1007.3
20260904071623 72 59 1.7 3.5 0.00 0.02 0.00 89 1007.1
20260904070124 73 57 0.9 3.5 0.00 0.02 0.00 89 1007.1
20260904064517 73 51 1.7 5.2 0.00 0.02 0.00 89 1007.1
20260904063003 73 50 2.6 5.2 0.00 0.02 0.00 89 1007.3
20260904061628 73 57 1.7 6.1 0.00 0.02 0.00 88 1007.1
20260904060001 73 90 1.7 5.2 0.00 0.02 0.00 88 1007.1
20260904054510 74 128 3.5 7.0 0.00 0.02 0.00 87 1007.4
20260904053007 74 80 3.5 7.8 0.00 0.02 0.00 87 1007.3
20260904051510 74 101 3.5 7.0 0.00 0.02 0.00 86 1007.3
20260904050009 74 70 1.7 6.1 0.00 0.02 0.00 86 1007.6
20260904044512 74 92 3.5 7.8 0.00 0.02 0.02 86 1007.4
20260904043130 74 13 2.6 7.8 0.00 0.02 0.02 86 1007.5
20260904041512 74 124 4.3 10.4 0.00 0.02 0.02 86 1007.2
20260904040010 74 137 7.0 12.2 0.00 0.02 0.02 86 1007.0
20260904034516 74 123 7.0 14.8 0.00 0.02 0.02 87 1006.9
20260904033021 74 124 5.2 9.6 0.00 0.02 0.02 86 1006.9
20260904031510 74 128 5.2 9.6 0.00 0.02 0.02 86 1007.0
20260904030016 74 93 5.2 9.6 0.00 0.02 0.02 86 1007.2
20260904024507 73 70 4.3 8.7 0.00 0.02 0.02 86 1007.3
20260904023149 73 92 4.3 9.6 0.00 0.02 0.02 86 1007.2
20260904021511 73 69 5.2 10.4 0.00 0.02 0.02 85 1007.0
20260904020136 74 98 5.2 8.7 0.00 0.02 0.02 84 1007.0
20260904014512 74 86 5.2 9.6 0.00 0.02 0.02 83 1006.8
20260904013014 75 103 6.1 10.4 0.00 0.02 0.02 82 1006.5